User: anonymous   Login
Location: Cogollal
(10.0582°N, 67.8466°W)
Time: 18:08:55
(UTC+00:00)
Language:

ARGOS - Orbit

View from above orbital plane
View from above orbital plane
View from above satellite
View from above satellite

Ground track
Ground track

The orbit data is extracted from the following two-line orbital elements,

1 25634U 99008A   24170.89975168  .00000101  00000-0  67155-4 0  9993
2 25634  98.4183 157.6332 0010126 359.7688   0.3483 14.19674240310952
Epoch (UTC): 18 June 2024 21:35:38
Eccentricity: 0.0010126
inclination: 98.4183°
perigee height: 819 km
apogee height: 834 km
right ascension of ascending node: 157.6332°
argument of perigee: 359.7688°
revolutions per day: 14.19674240
mean anomaly at epoch: 0.3483°
orbit number at epoch: 31095

The dashed part of the orbit path shows where the satellite is in the earth's shadow,  

DLR